Location: Newark
(34.1333°N, 7.9667°W)
Time: 02:37:22
(UTC+00:00)

S-56A Canister/Altair - Visible Passes

Search period start: 04 December 2021 00:00
Search period end: 14 December 2021 00:00
Orbit: 633 x 2500 km, 38.9° (Epoch: 03 December)

Date Brightness Start Highest point End Pass type
(mag) Time Alt. Az. Time Alt. Az. Time Alt. Az.
04 Dec 7.2 05:27:53 62° WSW 05:28:31 72° SSW 05:32:57 10° ESE visible
04 Dec 11.1 20:28:49 10° S 20:32:38 15° SSE 20:32:38 15° SSE visible
04 Dec 11.5 22:29:54 10° SW 22:30:05 10° SW 22:30:05 10° SW visible
05 Dec 7.9 04:57:08 54° ESE 04:57:08 54° ESE 05:00:35 10° ESE visible
05 Dec 9.1 06:56:15 10° WSW 06:59:00 16° SW 07:01:41 10° S visible
05 Dec 11.0 19:56:31 10° SSE 20:01:59 15° SE 20:01:59 15° SE visible
05 Dec 11.2 21:56:29 10° SW 21:59:26 18° SSW 21:59:26 18° SSW visible
06 Dec 9.3 04:26:24 25° ESE 04:26:24 25° ESE 04:28:14 10° ESE visible
06 Dec 8.9 06:23:50 13° W 06:26:36 20° SW 06:29:52 10° S visible
06 Dec 11.0 19:24:40 10° SSE 19:30:09 13° SE 19:31:21 13° SE visible
06 Dec 10.8 21:23:08 10° SSW 21:28:48 26° SSW 21:28:48 26° SSW visible
07 Dec 10.3 03:55:40 11° ESE 03:55:40 11° ESE 03:55:52 10° ESE visible
07 Dec 8.6 05:53:07 23° WSW 05:54:12 25° SW 05:57:55 10° SSE visible
07 Dec 11.1 18:53:47 10° SSE 18:56:58 11° SE 19:00:01 10° ESE visible
07 Dec 10.5 20:49:51 10° SSW 20:58:11 32° S 20:58:11 32° S visible
07 Dec 11.5 22:55:05 10° WSW 22:55:39 12° WSW 22:55:39 12° WSW visible
08 Dec 8.4 05:22:25 31° SSW 05:22:25 31° SSW 05:25:54 10° SSE visible
08 Dec 10.3 20:16:42 10° SSW 20:27:36 35° SSE 20:27:36 35° SSE visible
08 Dec 11.1 22:21:22 10° WSW 22:25:03 21° SW 22:25:03 21° SW visible
09 Dec 9.1 04:51:45 25° SSE 04:51:45 25° SSE 04:53:49 10° SE visible
09 Dec 10.3 19:43:39 10° SSW 19:55:51 32° SE 19:57:00 32° SE visible
09 Dec 10.7 21:47:42 10° SW 21:54:27 33° SW 21:54:27 33° SW visible
10 Dec 10.0 04:21:07 14° SE 04:21:07 14° SE 04:21:41 10° SE visible
10 Dec 10.5 19:10:45 10° S 19:22:33 29° SE 19:26:23 26° ESE visible
10 Dec 10.2 21:14:05 10° SW 21:23:50 47° SSW 21:23:50 47° SSW visible
11 Dec 10.7 18:38:02 10° S 18:49:16 26° SE 18:55:46 18° E visible
11 Dec 9.8 20:40:32 10° SW 20:53:12 59° S 20:53:12 59° S visible
11 Dec 11.3 22:47:42 10° WSW 22:50:40 19° W 22:50:40 19° W visible
12 Dec 10.9 18:05:30 10° S 18:15:59 23° SE 18:25:07 11° E visible
12 Dec 9.7 20:07:06 10° SW 20:21:36 58° SSE 20:22:33 57° SE visible
12 Dec 10.8 22:13:49 10° WSW 22:20:00 31° WSW 22:20:00 31° WSW visible
13 Dec 11.1 17:33:14 10° S 17:42:43 20° SE 17:51:43 10° E visible
13 Dec 9.8 19:33:46 10° SW 19:48:12 54° SE 19:51:53 45° ESE visible
13 Dec 10.3 21:39:58 10° WSW 21:49:19 46° WSW 21:49:19 46° WSW visible
